Track CYGNUS NG-19 now! 10-day predictions CYGNUS NG-19 is classified as:
1 57488U 23110A 23273.47796296 .00037029 00000-0 66226-3 0 9992 2 57488 51.6412 167.0103 0005272 67.2346 294.7439 15.49622180 9224